Theta_e
342 339 336 336 335 330 326 323 325 322 320 318 319 318 318 316 315 315 315 314 312 311
341 338 336 335 330 325 324 321 320 319 317 317 316 316 315 313 312 313 312 312 312 312
335 332 329 326 323 321 318 318 316 315 315 315 315 314 313 311 311 311 311 311 310 309
325 322 321 320 318 317 316 315 314 314 314 314 312 310 309 309 310 309 309 309 309 308
320 318 317 316 315 315 313 314 313 313 311 309 307 306 307 308 308 309 308 307 306 306
316 315 313 313 313 312 312 312 311 310 305 303 301 301 301 302 302 303 305 306 305 304
314 312 311 311 312 312 312 311 308 303 300 299 297 297 298 299 298 301 305 304 303 302
311 312 312 313 313 312 311 308 301 299 298 297 296 296 294 295 297 299 301 301 302 303
312 312 312 311 310 310 307 303 302 299 295 292 294 296 297 296 295 300 300 298 298 298
310 309 309 309 307 305 305 302 297 293 292 291 291 296 296 298 295 297 298 297 297 297
307 306 306 306 306 305 303 300 297 294 293 291 293 295 295 298 296 297 299 297 294 292
306 305 305 304 301 301 301 300 297 295 293 290 289 295 294 294 291 293 296 295 293 293
308 305 302 300 300 299 300 298 298 297 295 295 289 293 293 292 290 289 292 292 293 296
302 301 300 299 299 299 299 297 296 295 292 291 290 289 293 293 288 288 289 292 291 291
Wind_Speed
14 9 9 10 9 8 8 9 10 11 10 7 7 6 6 5 4 3 4 6 4 3
11 12 10 11 11 9 12 10 11 11 10 9 8 7 7 5 3 4 4 4 5 3
9 13 13 13 12 13 12 14 12 11 9 8 6 6 4 4 4 5 4 4 4 4
13 14 14 13 13 13 14 13 12 10 9 8 7 6 6 5 6 6 5 3 4 5
15 15 15 13 15 14 14 12 11 10 10 9 9 8 8 7 7 5 5 5 5 5
15 16 15 16 15 14 13 12 11 11 10 9 8 8 8 7 6 5 5 6 8 9
14 16 15 15 15 13 12 12 11 10 10 9 8 8 8 7 6 6 7 8 8 9
15 16 17 15 13 12 12 12 11 11 9 8 7 5 4 4 4 5 5 5 6 6
16 16 15 14 13 12 13 13 11 11 9 6 5 6 5 4 4 4 5 6 7 6
16 15 14 13 13 12 12 12 10 8 7 6 5 11 10 5 1 3 3 6 6 5
14 15 13 13 12 9 8 11 9 7 6 5 7 13 14 11 6 5 4 7 5 5
14 14 13 12 7 7 11 9 7 6 6 7 6 13 15 9 7 9 7 4 3 4
12 11 11 9 9 6 8 7 5 6 6 9 7 11 13 10 5 6 4 3 5 11
11 11 9 8 6 6 7 7 6 6 5 6 7 8 12 11 5 4 5 4 4 3
Wind_Direction
139 140 138 136 133 117 117 105 103 95 88 83 75 70 68 66 56 53 50 60 40 46
138 135 131 115 108 112 108 102 96 91 86 77 70 80 103 90 82 71 54 46 8 23
109 99 103 105 106 101 107 105 99 90 86 81 75 68 78 100 61 63 39 38 5 16
96 97 100 106 109 107 99 96 93 87 76 65 56 37 46 58 51 43 14 12 25 5
105 104 101 102 99 99 97 85 90 83 74 64 51 35 28 31 15 16 17 11 14 4
105 105 106 103 99 93 98 97 86 84 74 65 51 39 28 23 2 359 2 13 40 47
103 103 101 100 99 103 103 100 89 82 74 65 55 41 26 12 357 1 34 38 67 57
104 106 104 102 106 107 105 97 93 89 77 66 57 42 24 357 360 12 57 44 39 70
112 105 107 111 112 106 93 96 91 77 74 59 48 23 30 38 15 3 67 54 24 52
105 104 107 104 101 103 107 102 99 94 77 52 22 15 11 9 288 3 56 76 51 40
104 105 109 106 111 111 102 116 104 95 84 60 30 27 23 27 51 20 90 85 68 58
112 116 113 110 109 95 98 110 110 120 100 77 39 32 31 33 31 30 60 75 61 74
114 107 105 106 103 99 102 107 106 106 107 85 65 34 35 30 32 42 41 354 322 49
95 105 108 105 93 102 114 114 119 106 90 89 68 36 28 30 33 25 10 13 356 43